1364083226304,17.7908
1364083286304,17.7686
1364083346304,17.7010
1364083406304,17.7694
1364083466304,17.7505
1364083526304,17.7638
1364083586304,17.6766
1364083646304,17.6959
1364083706304,17.7243
1364083766304,17.7217
1364083826304,17.7100
1364083886304,17.7489
1364083946304,17.7947
1364084006304,17.7881
1364084066304,17.7659
1364084126304,17.7617
1364084186304,17.7286
1364084246304,17.7409
1364084306304,17.6957
1364084366304,17.6197
1364084426304,17.7087
1364084486304,17.7340
1364084546304,17.7685
1364084606304,17.7372
1364084666304,17.7645
1364084726304,17.6381
1364084786304,17.7168
1364084846304,17.7207
1364084906304,17.7632
1364084966304,17.7370
1364085026304,17.7332
1364085086304,17.6921
1364085146304,17.7457
1364085206304,17.7457
1364085266304,17.8119
1364085326304,17.7656
1364085386304,17.7941
1364085446304,17.7533
1364085506304,17.7860
1364085566304,17.7262
1364085626304,17.7265
1364085686304,17.7321
1364085746304,17.7206
1364085806304,17.7453
1364085866304,17.7277
1364085926304,17.6790
1364085986304,17.7147
1364086046304,17.7393
1364086106304,17.6809
1364086166304,17.7021
1364086226304,17.7692
1364086286304,17.7159
1364086346304,17.7388
1364086406304,17.7261
1364086466304,17.7056
1364086526304,17.7441
1364086586304,17.7405
1364086646304,17.7055
1364086706304,17.6856
1364086766304,17.7526
1364086826317,17.7641
1364086886317,17.7142
1364086946317,17.6392
1364087006317,17.7371
1364087066317,17.7708
1364087126317,17.7157
1364087186317,17.6858
1364087246317,17.7360
1364087306317,17.6884
1364087366317,17.6744
1364087426317,17.7155
1364087486317,17.6873
1364087546317,17.6874
1364087606317,17.6983
1364087666317,17.5998
1364087726317,17.6865
1364087786317,17.6292
1364087846317,17.6775
1364087906317,17.6429
1364087966317,17.6991
1364088026317,17.6744
1364088086317,17.6726
1364088146317,17.6919
1364088206317,17.6697
1364088266317,17.6417
1364088326317,17.6355
1364088386317,17.6187
1364088446317,17.7052
1364088506317,17.7035
1364088566317,17.7661
1364088626317,17.6839
1364088686317,17.6750
1364088746317,17.7040
1364088806317,17.6095
1364088866317,17.6070
1364088926317,17.7028
1364088986317,17.6431
1364089046317,17.6501
1364089106317,17.6609
1364089166317,17.6048
1364089226317,17.6601
1364089286317,17.6997
1364089346317,17.8379
1364089406317,17.6036
1364089466317,17.5798
1364089526317,17.6759
1364089586317,17.5860
1364089646317,17.6291
1364089706317,17.5425
1364089766317,17.6485
1364089826317,17.6195
1364089886317,17.6270
1364089946317,17.6335
1364090006317,17.5797
1364090066317,17.6103
1364090126317,17.6361
1364090186317,17.6481
1364090246317,17.6143
1364090306317,17.6451
1364090366317,17.6381
1364090426329,17.6125
1364090486329,17.5928
1364090546329,17.6173
1364090606329,17.5885
1364090666329,17.5710
1364090726329,17.6483
1364090786329,17.6004
1364090846329,17.6293
1364090906329,17.6445
1364090966329,17.6229
1364091026329,17.6349
1364091086329,17.5591
1364091146329,17.5640
1364091206329,17.6134
1364091266329,17.6079
1364091326329,17.6015
1364091386329,17.5970
1364091446329,17.6063
1364091506329,17.5435
1364091566329,17.5321
1364091626329,17.6149
1364091686329,17.6235
1364091746329,17.5805
1364091806329,17.6189
1364091866329,17.6544
1364091926329,17.6606
1364091986329,17.6554
1364092046329,17.6402
1364092106329,17.5818
1364092166329,17.6390
1364092226329,17.6439
1364092286329,17.6217
1364092346329,17.6400
1364092406329,17.6160
1364092466329,17.6088
1364092526329,17.6282
1364092586329,17.6067
1364092646329,17.6254
1364092706329,17.6298
1364092766329,17.6673
1364092826329,17.5990
1364092886329,17.6933
1364092946329,17.6088
1364093006329,17.6364
1364093066329,17.6254
1364093126329,17.6023
1364093186329,17.6648
1364093246329,17.5989
1364093306329,17.6410
1364093366329,17.6442
1364093426329,17.6643
1364093486329,17.6073
1364093546329,17.6710
1364093606329,17.6714
1364093666329,17.6623
1364093726329,17.6622
1364093786329,17.6493
1364093846329,17.6134
1364093906329,17.6457
1364093966329,17.5948
1364094026341,17.6262
1364094086341,17.5979
1364094146341,17.6131
1364094206341,17.6096
1364094266341,17.6381
1364094326341,17.6201
1364094386341,17.6381
1364094446341,17.6519
1364094506341,17.6289
1364094566341,17.6072
1364094626341,17.6046
1364094686341,17.6259
1364094746341,17.5829
1364094806341,17.5485
1364094866341,17.6429
1364094926341,17.6311
1364094986341,17.6040
1364095046341,17.6252
1364095106341,17.6075
1364095166341,17.6501
1364095226341,17.6386
1364095286341,17.6443
1364095346341,17.6438
1364095406341,17.6654
1364095466341,17.6067
1364095526341,17.5656
1364095586341,17.5753
1364095646341,17.5906
1364095706341,17.5882
1364095766341,17.5910
1364095826341,17.5911
1364095886341,17.5892
1364095946341,17.5664
1364096006341,17.5750
1364096066341,17.6005
1364096126341,17.6250
1364096186341,17.6128
1364096246341,17.7923
1364096306341,17.5983
1364096366341,17.6521
1364096426341,17.6719
1364096486341,17.6053
1364096546341,17.5989
1364096606341,17.6248
1364096666341,17.6363
1364096726341,17.6561
1364096786341,17.5997
1364096846341,17.5699
1364096906341,17.6168
1364096966341,17.6564
1364097026341,17.6122
1364097086341,17.6000
1364097146341,17.6248
1364097206341,17.6588
1364097266341,17.6440
1364097326341,17.5835
1364097386341,17.6947
1364097446341,17.6415
1364097506341,17.6501
1364097566341,17.6334
1364097626353,17.6513
1364097686353,17.6192
1364097746353,17.5851
1364097806353,17.6023
1364097866353,17.6024
1364097926353,17.6295
1364097986353,17.5899
1364098046353,17.6550
1364098106353,17.6686
1364098166353,17.6399
1364098226353,17.5865
1364098286353,17.5952
1364098346353,17.6215
1364098406353,17.6339
1364098466353,17.6206
1364098526353,17.6541
1364098586353,17.5616
1364098646353,17.6156
1364098706353,17.6292
1364098766353,17.6320
1364098826353,17.5826
1364098886353,17.6864
1364098946353,17.5782
1364099006353,17.5559
1364099066353,17.6589
1364099126353,17.5955
1364099186353,17.5373
1364099246353,17.5789
1364099306353,17.5387
1364099366353,17.5525
1364099426353,17.5773
1364099486353,17.5993
1364099546353,17.5354
1364099606353,17.6099
1364099666353,17.5630
1364099726353,17.5661
1364099786353,17.6417
1364099846353,17.5903
1364099906353,17.5695
1364099966353,17.5487
1364100026353,17.5987
1364100086353,17.6287
1364100146353,17.6013
1364100206353,17.5840
1364100266353,17.6410
1364100326353,17.5733
1364100386353,17.6139
1364100446353,17.6097
1364100506353,17.6098
1364100566353,17.6278
1364100626353,17.6218
1364100686353,17.6346
1364100746353,17.6302
1364100806353,17.5955
1364100866353,17.6005
1364100926353,17.5943
1364100986353,17.5824
1364101046353,17.5884
1364101106353,17.5532
1364101166353,17.5399
1364101226365,17.5006
1364101286365,17.5506
1364101346365,17.5354
1364101406365,17.5845
1364101466365,17.5630
1364101526365,17.5406
1364101586365,17.6350
1364101646365,17.5704
1364101706365,17.6208
1364101766365,17.6806
1364101826365,17.5902
1364101886365,17.6202
1364101946365,17.6367
1364102006365,17.5482
1364102066365,17.6541
1364102126365,17.6076
1364102186365,17.5690
1364102246365,17.5952
1364102306365,17.5217
1364102366365,17.6026
1364102426365,17.5723
1364102486365,17.5960
1364102546365,17.5431
1364102606365,17.5661
1364102666365,17.5212
1364102726365,17.5639
1364102786365,17.5325
1364102846365,17.5738
1364102906365,17.6167
1364102966365,17.5874
1364103026365,17.5895
1364103086365,17.5714
1364103146365,17.5996
1364103206365,17.5534
1364103266365,17.5764
1364103326365,17.6255
1364103386365,17.6190
1364103446365,17.5825
1364103506365,17.6351
1364103566365,17.5765
1364103626365,17.6159
1364103686365,17.5842
1364103746365,17.6052
1364103806365,17.5905
1364103866365,17.5665
1364103926365,17.5984
1364103986365,17.5682
1364104046365,17.5950
1364104106365,17.6086
1364104166365,17.5922
1364104226365,17.5880
1364104286365,17.6088
1364104346365,17.5899
1364104406365,17.6457
1364104466365,17.6030
1364104526365,17.6493
1364104586365,17.6245
1364104646365,17.6200
1364104706365,17.5986
1364104766365,17.5526
1364104826377,17.6149
1364104886377,17.6129
1364104946377,17.5768
1364105006377,17.6053
1364105066377,17.5289
1364105126377,17.5964
1364105186377,17.5448
1364105246377,17.5673
1364105306377,17.5414
1364105366377,17.5639
1364105426377,17.5748
1364105486377,17.6397
1364105546377,17.5279
1364105606377,17.5227
1364105666377,17.5841
1364105726377,17.5085
1364105786377,17.5714
1364105846377,17.5796
1364105906377,17.5568
1364105966377,17.5492
1364106026377,17.5587
1364106086377,17.4826
1364106146377,17.4958
1364106206377,17.5211
1364106266377,17.4608
1364106326377,17.4295
1364106386377,17.1752
1364117126411,17.5720
1364117186411,17.5763
1364117246411,17.5489
1364117306411,17.5744
1364117366411,17.5443
1364117426411,17.5139
1364117486411,17.5263
1364117546411,17.5352
1364117606411,17.5832
1364117666411,17.5690
1364117726411,17.5665
1364117786411,17.5471
1364117846411,17.5341
1364117906411,17.6038
1364117966411,17.5470
1364118026411,17.5626
1364118086411,17.5699
1364118146411,17.5749
1364118206411,17.5806
1364118266411,17.6299
1364118326411,17.6145
1364118386411,17.5443
1364118446411,17.5935
1364118506411,17.6570
1364118566411,17.5923
1364118626411,17.5656
1364118686411,17.5534
1364118746411,17.6118
1364118806411,17.5065
1364118866411,17.5904
1364118926411,17.5827
1364118986411,17.5447
1364119046411,17.6212
1364119106411,17.6200
1364119166411,17.6378
1364119226423,17.5475
1364119286423,17.5722
1364119346423,17.5441
1364119406423,17.5456
1364119466423,17.5790
1364119526423,17.5817
1364119586423,17.5388
1364119646423,17.5361
1364119706423,17.4991
1364119766423,17.5195
1364119826423,17.5223
1364119886423,17.5032
1364119946423,17.5118
1364120006423,17.5456
1364120066423,17.5703
1364120126423,17.5660
1364120186423,17.5383
1364120246423,17.6219
1364120306423,17.5289
1364120366423,17.5272
1364120426423,17.4872
1364120486423,17.5121
1364120546423,17.5026
1364120606423,17.5821
1364120666423,17.5716
1364120726423,17.5786
1364120786423,17.4912
1364120846423,17.5684
1364120906423,17.5709
1364120966423,17.5314
1364121026423,17.5341
1364121086423,17.5000
1364121146423,17.4851
1364121206423,17.5991
1364121266423,17.5560
1364121326423,17.5071
1364121386423,17.5753
1364121446423,17.5236
1364121506423,17.5648
1364121566423,17.5208
1364121626423,17.5364
1364121686423,17.5606
1364121746423,17.5333
1364121806423,17.5362
1364121866423,17.5427
1364121926423,17.5082
1364121986423,17.5716
1364122046423,17.5875
1364122106423,17.5838
1364122166423,17.5393
1364122226423,17.5178
1364122286423,17.5563
1364122346423,17.5646
1364122406423,17.5425
1364122466423,17.5638
1364122526423,17.5428
1364122586423,17.5338
1364122646423,17.5909
1364122706423,17.5339
1364122766423,17.5760
1364122826435,17.6037
1364122886435,17.5809
1364122946435,17.6197
1364123006435,17.5122
1364123066435,17.5660
1364123126435,17.5676
1364123186435,17.6243
1364123246435,17.6111
1364123306435,17.5667
1364123366435,17.6111
1364123426435,17.6314
1364123486435,17.5860
1364123546435,17.5870
1364123606435,17.5734
1364123666435,17.6044
1364123726435,17.6165
1364123786435,17.6027
1364123846435,17.5728
1364123906435,17.5632
1364123966435,17.5554
1364124026435,17.5573
1364124086435,17.5501
1364124146435,17.4986
1364124206435,17.5255
1364124266435,17.5030
1364124326435,17.5355
1364124386435,17.5675
1364124446435,17.5284
1364124506435,17.5341
1364124566435,17.5549
1364124626435,17.5991
1364124686435,17.5556
1364124746435,17.6189
1364124806435,17.5457
1364124866435,17.5821
1364124926435,17.5978
1364124986435,17.5473
1364125046435,17.5361
1364125106435,17.5364
1364125166435,17.5464
1364125226435,17.5770
1364125286435,17.5490
1364125346435,17.5991
1364125406435,17.5396
1364125466435,17.5321
1364125526435,17.6006
1364125586435,17.5255
1364125646435,17.5916
1364125706435,17.5891
1364125766435,17.5161
1364125826435,17.5049
1364125886435,17.5880
1364125946435,17.5747
1364126006435,17.5536
1364126066435,17.6350
1364126126435,17.6124
1364126186435,17.5992
1364126246435,17.6110
1364126306435,17.6086
1364126366435,17.5944
1364126426446,17.6085
1364126486446,17.5739
1364126546446,17.5601
1364126606446,17.6130
1364126666446,17.5772
1364126726446,17.6682
1364126786446,17.5936
1364126846446,17.6277
1364126906446,17.5879
1364126966446,17.6126
1364127026446,17.5809
1364127086446,17.5522
1364127146446,17.5931
1364127206446,17.5372
1364127266446,17.6124
1364127326446,17.5695
1364127386446,17.5613
1364127446446,17.5994
1364127506446,17.5891
1364127566446,17.5398
1364127626446,17.5561
1364127686446,17.6355
1364127746446,17.5772
1364127806446,17.5836
1364127866446,17.6007
1364127926446,17.6186
1364127986446,17.6110
1364128046446,17.5194
1364128106446,17.5642
1364128166446,17.5642
1364128226446,17.6046
1364128286446,17.5018
1364128346446,17.6001
1364128406446,17.6255
1364128466446,17.6377
1364128526446,17.6132
1364128586446,17.5929
1364128646446,17.6056
1364128706446,17.6489
1364128766446,17.5999
1364128826446,17.5978
1364128886446,17.6565
1364128946446,17.6124
1364129006446,17.5929
1364129066446,17.6116
1364129126446,17.5780
1364129186446,17.5681
1364129246446,17.6125
1364129306446,17.6000
1364129366446,17.6756
1364129426446,17.6076
1364129486446,17.6742
1364129546446,17.6041
1364129606446,17.6332
1364129666446,17.6040
1364129726446,17.5780
1364129786446,17.6344
1364129846446,17.6016
1364129906446,17.6157
1364129966446,17.6008
1364130026458,17.5971
1364130086458,17.6384
1364130146458,17.6133
1364130206458,17.5954
1364130266458,17.5836
1364130326458,17.6007
1364130386458,17.6245
1364130446458,17.6538
1364130506458,17.6665
1364130566458,17.6779
1364130626458,17.6209
1364130686458,17.5996
1364130746458,17.6316
1364130806458,17.5783
1364130866458,17.6096
1364130926458,17.5349
1364130986458,17.5513
1364131046458,17.6104
1364131106458,17.5762
1364131166458,17.6302
1364131226458,17.6100
1364131286458,17.5976
1364131346458,17.5607
1364131406458,17.5628
1364132546458,17.6528
1364132606458,17.5104
1364132666458,17.6321
1364132726458,17.5642
1364132786458,17.5322
1364132846458,17.5998
1364132906458,17.6208
1364132966458,17.5575
1364133026458,17.5625
1364133086458,17.5252
1364133146458,17.5010
1364133206458,17.4994
1364133266458,17.5765
1364133326458,17.5802
1364133386458,17.5544
1364133446458,17.5914
1364133506458,17.5483
1364133566458,17.5708
1364133626470,17.5707
1364133686470,17.5651
1364133746470,17.5600
1364133806470,17.5716
1364133866470,17.6012
1364133926470,17.6552
1364133986470,17.6150
1364134046470,17.6525
1364134106470,17.6587
1364134166470,17.6570
1364134226470,17.6976
1364134286470,17.6400
1364134346470,17.6864
1364134406470,17.6690
1364134466470,17.6015
1364134526470,17.6271
1364134586470,17.5850
1364134646470,17.6171
1364134706470,17.6233
1364134766470,17.6202
1364134826470,17.6209
1364134886470,17.6296
1364134946470,17.6477
1364135006470,17.5859
1364135066470,17.5776
1364135126470,17.5929
1364135186470,17.5699
1364135246470,17.6285
1364135306470,17.5942
1364135366470,17.5863
1364135426470,17.5642
1364135486470,17.5572
1364135546470,17.5536
1364135606470,17.5672
1364135666470,17.5957
1364135726470,17.5463
1364135786470,17.5345
1364135846470,17.6541
1364135906470,17.6203
1364135966470,17.6172
1364136026470,17.5521
1364136086470,17.6290
1364136146470,17.5706
1364136206470,17.6315
1364136266470,17.5915
1364136326470,17.6525
1364136386470,17.6707
1364136446470,17.6606
1364136506470,17.6248
1364136566470,17.6169
1364136626470,17.6466
1364136686470,17.6626
1364136746470,17.7276
1364136806470,17.7197
1364136866470,17.6646
1364136926470,17.6545
1364136986470,17.6183
1364137046470,17.6077
1364137106470,17.5884
1364137166470,17.6267
1364137226481,17.5885
1364137286481,17.6583
1364137346481,17.5855
1364137406481,17.5796
1364137466481,17.5646
1364137526481,17.6012
1364137586481,17.6001
1364137646481,17.6461
1364137706481,17.6283
1364137766481,17.5606
1364137826481,17.6165
1364137886481,17.6348
1364137946481,17.5938
1364138006481,17.6366
1364138066481,17.6058
1364138126481,17.6553
1364138186481,17.5728
1364138246481,17.5575
1364138306481,17.5747
1364138366481,17.6013
1364138426481,17.5845
1364138486481,17.6005
1364138546481,17.6324
1364138606481,17.5606
1364138666481,17.5818
1364138726481,17.5811
1364138786481,17.5788
1364138846481,17.5977
1364138906481,17.5828
1364138966481,17.5706
1364139026481,17.6295
1364139086481,17.5200
1364139146481,17.5081
1364139206481,17.5818
1364139266481,17.5928
1364139326481,17.6215
1364139386481,17.6114
1364139446481,17.5150
1364139506481,17.6108
1364139566481,17.5828
1364139626481,17.5681
1364139686481,17.6108
1364139746481,17.5981
1364139806481,17.5104
1364139866481,17.5773
1364139926481,17.5474
1364139986481,17.5815
1364140046481,17.5779
1364140106481,17.6067
1364140166481,17.5551
1364140226481,17.5194
1364140286481,17.5570
1364140346481,17.5436
1364140406481,17.5695
1364140466481,17.5543
1364140526481,17.5770
1364140586481,17.5807
1364140646481,17.5512
1364140706481,17.5882
1364140766481,17.5666
1364140826493,17.5547
1364140886493,17.5522
1364140946493,17.5846
1364141006493,17.5447
1364141066493,17.5330
1364141126493,17.6007
1364141186493,17.5843
1364141246493,17.5870
1364141306493,17.6422
1364141366493,17.5307
1364141426493,17.6973
1364141486493,17.5612
1364141546493,17.5435
1364141606493,17.5247
1364141666493,17.5238
1364141726493,17.5580
1364141786493,17.5558
1364141846493,17.5020
1364141906493,17.5408
1364141966493,17.4872
1364142026493,17.5280
1364142086493,17.5187
1364142146493,17.5568
1364142206493,17.6008
1364142266493,17.6422
1364142326493,17.5577
1364142386493,17.5492
1364142446493,17.6021
1364142506493,17.5901
1364142566493,17.6049
1364142626493,17.6100
1364142686493,17.6164
1364142746493,17.6019
1364142806493,17.5893
1364142866493,17.5892
1364142926493,17.5466
1364142986493,17.5635
1364143046493,17.5360
1364143106493,17.5490
1364143166493,17.5344
1364143226493,17.5945
1364143286493,17.6696
1364143346493,17.6187
1364143406493,17.5637
1364143466493,17.5749
1364143526493,17.6082
1364143586493,17.5824
1364143646493,17.5710
1364143706493,17.5723
1364143766493,17.6127
1364143826493,17.5760
1364143886493,17.6421
1364143946493,17.5942
1364144006493,17.5894
1364144066493,17.6231
1364144126493,17.6420
1364144186493,17.5811
1364144246493,17.6468
1364144306493,17.5763
1364144366493,17.6376
1364144426504,17.5870
1364144486504,17.5919
1364144546504,17.5721
1364144606504,17.6171
1364144666504,17.5603
1364144726504,17.6300
1364144786504,17.6009
1364144846504,17.6235
1364144906504,17.6284
1364144966504,17.6125
1364145026504,17.6164
1364145086504,17.6174
1364145146504,17.6478
1364145206504,17.6444
1364145266504,17.6044
1364145326504,17.6613
1364145386504,17.6558
1364145446504,17.5963
1364145506504,17.6317
1364145566504,17.6501
1364145626504,17.6140
1364145686504,17.6247
1364145746504,17.6311
1364145806504,17.6410
1364145866504,17.6360
1364145926504,17.6523
1364145986504,17.6702
1364146046504,17.7042
1364146106504,17.6657
1364146166504,17.6515
1364146226504,17.6828
1364146286504,17.7186
1364146346504,17.6389
1364146406504,17.6599
1364146466504,17.6264
1364146526504,17.6172
1364146586504,17.5751
1364146646504,17.6145
1364146706504,17.6392
1364146766504,17.6270
1364146826504,17.6735
1364146886504,17.5913
1364146946504,17.6261
1364147006504,17.5972
1364147066504,17.6074
1364147126504,17.6078
1364147186504,17.5970
1364147246504,17.6542
1364147306504,17.5774
1364147366504,17.6077
1364147426504,17.6162
1364147486504,17.5846
1364147546504,17.5590
1364147606504,17.5748
1364147666504,17.6029
1364147726504,17.5749
1364147786504,17.5207
1364147846504,17.4977
1364147906504,17.5519
1364147966504,17.5505
1364148026515,17.5227
1364148086515,17.5229
1364148146515,17.6190
1364148206515,17.5610
1364148266515,17.6103
1364148326515,17.5661
1364148386515,17.5837
1364148446515,17.6286
1364148506515,17.5548
1364148566515,17.5645
1364148626515,17.5410
1364148686515,17.5363
1364148746515,17.5610
1364148806515,17.5694
1364148866515,17.5912
1364148926515,17.6050
1364148986515,17.5864
1364149046515,17.6085
1364149106515,17.5794
1364149166515,17.5799
1364149226515,17.5992
1364149286515,17.6099
1364149346515,17.6452
1364149406515,17.6408
1364149466515,17.6828
1364149526515,17.6181
1364149586515,17.6424
1364149646515,17.6358
1364149706515,17.6279
1364149766515,17.6453
1364149826515,17.6242
1364149886515,17.5789
1364149946515,17.6364
1364150006515,17.6984
1364150066515,17.6388
1364150126515,17.6643
1364150186515,17.6018
1364150246515,17.6667
1364150306515,17.6861
1364150366515,17.6895
1364150426515,17.6902
1364150486515,17.6918
1364150546515,17.6008
1364150606515,17.6641
1364150666515,17.5979
1364150726515,17.7085
1364150786515,17.6857
1364150846515,17.6387
1364150906515,17.5997
1364150966515,17.6783
1364151026515,17.6431
1364151086515,17.6860
1364151146515,17.7166
1364151206515,17.6575
1364151266515,17.6554
1364151326515,17.6819
1364151386515,17.6628
1364151446515,17.6576
1364151506515,17.7046
1364151566515,17.6783
1364151626527,17.7027
1364151686527,17.6870
1364151746527,17.7278
1364151806527,17.6892
1364151866527,17.7555
1364151926527,17.7333
1364151986527,17.7683
1364152046527,17.7437
1364152106527,17.7734
1364152166527,17.7604
1364152226527,17.7027
1364152286527,17.7129
1364152346527,17.6774
1364152406527,17.7301
1364152466527,17.7083
1364152526527,17.7693
1364152586527,17.7649
1364152646527,17.7363
1364152706527,17.8101
1364152766527,17.7816
1364152826527,17.7351
1364152886527,17.7438
1364152946527,17.8188
1364153006527,17.7638
1364153066527,17.7943
1364153126527,17.8341
1364153186527,17.7801
1364153246527,17.8433
1364153306527,17.7591
1364153366527,17.7878
1364153426527,17.8310
1364153486527,17.7882
1364153546527,17.7528
1364153606527,17.8191
1364153666527,17.7687
1364153726527,17.7364
1364153786527,17.8017
1364153846527,17.8414
1364153906527,17.7476
1364153966527,17.7748
1364154026527,17.7460
1364154086527,17.8003
1364154146527,17.7341
1364154206527,17.7288
1364154266527,17.7639
1364154326527,17.7470
1364154386527,17.7649
1364154446527,17.7598
1364154506527,17.7767
1364154566527,17.7560
1364154626527,17.7368
1364154686527,17.7340
1364154746527,17.7084
1364154806527,17.7178
1364154866527,17.7555
1364154926527,17.7995
1364154986527,17.6735
1364155046527,17.7717
1364155106527,17.7034
1364155166527,17.7808
1364155226538,17.7542
1364155286538,17.7468
1364155346538,17.7172
1364155406538,17.7671
1364155466538,18.2188
1364155526538,17.8285
1364155586538,17.7271
1364155646538,17.7234
1364155706538,17.6746
1364155766538,17.7364
1364155826538,17.7296
1364155886538,17.7364
1364155946538,17.7434
1364156006538,17.7322
1364156066538,17.7670
1364156126538,17.7477
1364156186538,17.7071
1364156246538,17.7281
1364156306538,17.7837
1364156366538,17.6783
1364156426538,17.7020
1364156486538,17.6822
1364156546538,17.6874
1364156606538,17.6803
1364156666538,17.6596
1364156726538,17.7313
1364156786538,17.7172
1364156846538,17.7121
1364156906538,17.7121
1364156966538,17.7773
1364157026538,17.7202
1364157086538,17.7362
1364157146538,17.7286
1364157206538,17.7489
1364157266538,17.7168
1364157326538,17.7233
1364157386538,17.7575
1364157446538,17.7519
1364157506538,17.7052
1364157566538,17.7256
1364157626538,17.6769
1364157686538,17.6574
1364157746538,17.7260
1364157806538,17.7414
1364157866538,17.6763
1364157926538,17.7633
1364157986538,17.6836
1364158046538,17.7379
1364158106538,17.7274
1364158166538,17.7453
1364158226538,17.6947
1364158286538,17.7540
1364158346538,17.7562
1364158406538,17.7612
1364158466538,17.7282
1364158526538,17.7318
1364158586538,17.7880
1364158646538,17.7032
1364158706538,17.7580
1364158766538,17.6781
1364158826550,17.6556
1364158886550,17.6788
1364158946549,17.6804
1364159006549,17.6857
1364159066549,17.6679
1364159126549,17.6296
1364159186550,17.6865
1364159246550,17.7420
1364159306550,17.6944
1364159366550,17.6482
1364159426550,17.7417
1364159486550,17.7555
1364159546550,17.6917
1364159606550,17.6796
1364159666550,17.6730
1364159726550,17.6972
1364159786550,17.7145
1364159846550,17.7297
1364159906550,17.7616
1364159966550,17.6936
1364160026550,17.6729
1364160086550,17.7341
1364160146550,17.7216
1364160206550,17.7590
1364160266550,17.6838
1364160326549,17.6774